Weather History for Missoula, MT

Change the Weather History Date:

Thursday, July 3, 2014

  Actual Average Record
Temperature  
Mean Temperature 76 °F 66 °F  
Max Temperature 93 °F 82 °F 97 °F (1985)
Min Temperature 58 °F 50 °F 30 °F (1901)
Degree Days  
Heating Degree Days 0 2  
Month to date heating degree days 0 7  
Since 1 June heating degree days 177 167  
Since 1 July heating degree days 0 7  
Cooling Degree Days 11 3  
Month to date cooling degree days 21 9  
Year to date cooling degree days 29 52  
Since 1 June cooling degree days 29 46  
Growing Degree Days 25 (Base 50)    
Moisture  
Dew Point 48 °F    
Average Humidity 45    
Maximum Humidity 75    
Minimum Humidity 15    
Precipitation  
Precipitation T in 0.04 in 0.96 in (1998)
Month to date precipitation T 0.12  
Year to date precipitation 8.84 7.97  
Snow  
Snow 0.00 in - - ()
Month to date snowfall 0.0  
Year to date snowfall 51.9  
Since 1 July snowfall 0.0  
Snow Depth 0.00 in    
Sea Level Pressure  
Sea Level Pressure 29.87 in    
Wind  
Wind Speed 6 mph (North)    
Max Wind Speed 23 mph    
Max Gust Speed 27 mph    
Visibility 10 miles    
Events Rain    
T = Trace of Precipitation, MM = Missing Value Source: NWS Daily Summary

Daily Weather History Graph

Daily Weather History Graph

Search for Another Location

Airport:

Trip Planner

Search our weather history database for the weather conditions in past years. The results will help you decide how hot, cold, wet, or windy it might be!

Date:

Astronomy

Jul. 03, 2014 Rise Set
Actual Time 5:46 AM MDT 9:34 PM MDT
Civil Twilight 5:07 AM MDT 10:13 PM MDT
Nautical Twilight 4:14 AM MDT 11:06 PM MDT
Astronomical Twilight 2:57 AM MDT 12:22 AM MDT
Moon 12:14 PM MDT (7/3) 12:06 AM MDT (7/3)
Length of Visible Light 17h 05m
Length of Day
15h 47m
Waxing Crescent, 33% of the Moon is Illuminated
Jul 3
Waxing Crescent
Jul 5
First Quarter
Jul 12
Full
Jul 18
Last Quarter
Jul 26
New

Hourly Weather History & Observations

Time (MDT) Temp. Dew Point Humidity Pressure Visibility Wind Dir Wind Speed Gust Speed Precip Events Conditions
12:53 AM 70.0 °F 48.9 °F 47% 29.86 in 10.0 mi Calm Calm - N/A   Clear
1:53 AM 66.0 °F 51.1 °F 59% 29.86 in 10.0 mi Calm Calm - N/A   Clear
2:53 AM 64.9 °F 51.1 °F 61% 29.87 in 10.0 mi Calm Calm - N/A   Clear
3:53 AM 64.0 °F 51.1 °F 63% 29.88 in 10.0 mi East 3.5 mph - N/A   Clear
4:53 AM 62.1 °F 51.1 °F 67% 29.88 in 10.0 mi East 5.8 mph - N/A   Clear
5:53 AM 59.0 °F 51.1 °F 75% 29.89 in 10.0 mi Calm Calm - N/A   Clear
6:53 AM 60.1 °F 52.0 °F 75% 29.92 in 10.0 mi NE 6.9 mph - N/A   Clear
7:53 AM 62.6 °F 53.6 °F 72% 30.00 in 10.0 mi Calm Calm - N/A   Clear
8:53 AM 68.0 °F 53.1 °F 59% 29.91 in 10.0 mi East 4.6 mph - N/A   Clear
9:53 AM 72.0 °F 50.0 °F 46% 29.88 in 10.0 mi SE 8.1 mph - N/A   Partly Cloudy
9:58 AM 71.6 °F 51.8 °F 50% 29.96 in 10.0 mi Calm Calm - N/A Rain Light Rain
10:53 AM 73.0 °F 53.1 °F 49% 29.90 in 10.0 mi WNW 6.9 mph - 0.00 in   Clear
11:53 AM 79.0 °F 53.1 °F 40% 29.89 in 10.0 mi Calm Calm - N/A   Clear
12:53 PM 84.2 °F 50.0 °F 30% 29.95 in 10.0 mi Calm Calm - N/A   Clear
1:53 PM 88.0 °F 50.0 °F 27% 29.85 in 10.0 mi Variable 4.6 mph - N/A   Clear
2:53 PM 91.0 °F 48.0 °F 23% 29.83 in 10.0 mi NNW 10.4 mph - N/A   Clear
3:53 PM 93.0 °F 46.0 °F 20% 29.81 in 10.0 mi North 8.1 mph - N/A   Clear
4:53 PM 90.0 °F 48.9 °F 24% 29.80 in 10.0 mi NNE 9.2 mph - N/A   Mostly Cloudy
5:53 PM 93.0 °F 44.1 °F 18% 29.79 in 10.0 mi WNW 19.6 mph 25.3 mph N/A   Partly Cloudy
6:53 PM 91.9 °F 37.9 °F 15% 29.78 in 10.0 mi West 18.4 mph 21.9 mph N/A   Clear
7:53 PM 88.0 °F 39.0 °F 18% 29.80 in 10.0 mi WSW 11.5 mph - N/A   Clear
8:53 PM 84.0 °F 46.0 °F 26% 29.81 in 10.0 mi NW 4.6 mph - N/A   Clear
9:53 PM 75.0 °F 44.1 °F 33% 29.85 in 10.0 mi NNW 6.9 mph - N/A   Clear
10:53 PM 68.0 °F 45.0 °F 43% 29.89 in 10.0 mi North 9.2 mph - N/A   Clear
11:53 PM 66.9 °F 44.1 °F 44% 29.90 in 10.0 mi Calm Calm - N/A   Clear